Погода в Ижевске

Погода в Ижевске : погода сейчас, прогноз погоды и архив. Всё, что Вы хотите узнать о погоде в Ижевске!

Хотите узнать прогноз погоды в Ижевске? Тогда Вам сюда: Погода в Ижевске

Поиск расширенной информации на нашем сайте:

Полезная информация:

Другие новости

Новости СМИ2

Главная страница сайта

Новости сайта

03.07.2017

Напоминаем, что на нашем специализированном сайте Метеоцентр.Азия вы можете получить высокодетализированные автоматические прогнозы погоды по пунктам России, СНГ и мира в авиационном формате (включающие направление и скорость ветра, видимость, явления погоды, количество и форму облачности, нижнюю и верхнюю границу облачности).

Рекомендуем:

Погода в Ижевске - сегодня

Время (UTC), дата Ветер
(°,м/с) 
Видим.   Явления Облачность Т
(°С)
Тd
(°С)
f(%) Тe
(°С)
Pmin
(гПа)
dP
(гПа)
Po
(мм)
O2
(г/м3)
Тmin Tmax R s Состояние
почвы
09 15.09.19 тихо () -2{03}  10 км  {дождь}  9/3 1000 м средняя 
[Sc|Ac trans]
+12.4 +10.3 87 +14  1009.4  0.3  743  284           
12 15.09.19 тихо () -2{03}  10 км    9/3 1000 м средняя 
[Sc|Ac trans]
+15.2 +8.2 63 +15  1009.2  -0.1  743  282           
15 15.09.19 тихо () -2{03}  10 км    6/0 средняя 
[Ac trans]
+11.2 +6.8 74 +11  1008.9  -0.6  742  286    +16.2     
18 15.09.19 тихо () -2{03}  10 км    10/0 верхняя 
[Ci fib]
+9.3 +6.5 83 +9  1008.9  -0.1  742  288           
21 15.09.19 тихо () -2{03}  10 км    8/0 верхняя 
[Ci fib]
+7.2 +5 86 +7  1008.9  -0.1  742  290           
00 16.09.19 тихо () -2{03}  10 км    3/0 верхняя 
[Ci fib]
+5.4 +3.5 88 +5  1008.1  -1  741  292           
03 16.09.19 тихо () -2{03}  10 км    9/0 средняя 
[Ac trans]
+5.6 +4.7 94 +6  1007.4  -0.6  741  292  +5        влажная 
06 16.09.19 220 (ЮЗ) 2-3{05}  10 км    10/0 средняя, верхняя 
[Ac trans|Ci fib]
+8.5 +5.9 84 +9  1005.4  -1.7  740  288           
09 16.09.19 210 (ЮЗ) 5-7{09}  10 км    10/8 1000 м средняя 
[Sc|Ac und]
+11.3 +6.4 72 +10  1003.7  -1.6  738  285           
12 16.09.19 180 (Ю) 5-7{10}  10 км  слаб. дождь  10/8 600 м средняя 
[Sc|Ac As]
+9.7 +7.1 84 +8  1001.2  -2.5  737  285           
15 16.09.19 180 (Ю) 4-6{08}  10 км  слаб. дождь  10/8 300 м средняя 
[Sc|Ac As]
+8.3 +7.8 97 +7  999.2  -2  735  286    +12     
18 16.09.19 200 (Ю) 4-6{08}  10 км  слаб. дождь{ливн. осадки}  10/8 300 м средняя 
[Sc|Ac As]
+8.3 +7.8 97 +7  997.7  -1.5  734  286           
21 16.09.19 190 (Ю) 3-5{07}  10 км  {дождь}  10/8 300 м средняя 
[Sc|Ac As]
+8.5 +8.1 97 +8  996.3  -1.3  733  285           
00 17.09.19 220 (ЮЗ) 3-5{07}  10 км  {дождь}  10/8 300 м средняя 
[Sc|Ac As]
+8.6 +8 96 +8  996.7  0.3  733  285           
03 17.09.19 200 (Ю) 3-5{07}  10 км    9/9 300 м 
[Sc]
+8.7 +8.2 97 +8  996.9  0.2  733  285  +8.1      мокрая 
06 17.09.19 210 (ЮЗ) 5-6{07}  10 км    9/8 300 м средняя 
[Sc|Ac trans]
+10.7 +8.2 85 +10  997.8  734  283           
09 17.09.19 210 (ЮЗ) 4-5{07}  10 км    9/8 600 м средняя 
[Sc|Ac trans]
+13 +9.3 78 +14  997.7  0.1  734  281           
12 17.09.19 230 (ЮЗ) 3-4{08}  10 км  {гроза, ливн. осадки}  9/8 1000 м кучево-дожд., средняя 
[Cb calv|Ac trans]
+13.4 +9.5 77 +14  997.8  0.1  734  280           
15 17.09.19 210 (ЮЗ) 3-4{09}  10 км  {ливн. осадки}  8/4 1000 м кучево-дожд., средняя 
[Cb calv|Ac trans]
+10.6 +8.1 85 +10  998  734  283    +13.5     
18 17.09.19 220 (ЮЗ) 2-3{06}  10 км  {ливн. осадки}  9/8 1000 м средняя 
[Sc diur, vesp|Ac trans]
+10.2 +6.8 79 +10  997.2  -0.8  734  284           
21 17.09.19 тихо () -2{03}  10 км  {дождь}  9/0 средняя 
[Ac trans]
+9.4 +6.1 80 +9  997.5  0.2  734  285           
00 18.09.19 190 (Ю) 2-3{04}  10 км  {дождь}  9/0 средняя 
[Ac trans]
+7.5 +5 84 +7  997.6  734  287           
03 18.09.19 250 (З) 2-3{04}  10 км    4/0 средняя 
[Ac trans]
+6.7 +5.1 90 +7  998.1  0.5  734  288  +6.7    0.7    влажная 
06 18.09.19 250 (З) 2-4{06}  10 км    6/3 1000 м средняя 
[Sc|Ac trans]
+10.1 +7.1 82 +10  998.9  735  284           
09 18.09.19 270 (З) 3-5{07}  10 км    9/9 1000 м кучево-дожд. 
[Cb cap]
+12.5 +6.7 68 +12  999.5  0.8  735  282           
Время (UTC), дата Ветер
(°,м/с) 
Видим.   Явления Облачность Т
(°С)
Тd
(°С)
f(%) Тe
(°С)
Pmin
(гПа)
dP
(гПа)
Po
(мм)
O2
(г/м3)
Тmin Tmax R s Состояние
почвы

Для получения пояснительной информации подведите курсор к названию столбца.

ПОГОДА в Ижевске - архив

Всё, что Вы хотите узнать о погоде в Ижевске - удобно и подробно!

Выберите нужную дату (начиная с 1 января 2018* года) и нажмите кнопку "Найти".
Будут отображены архивные сводки погоды по пункту Ижевск, начиная с указанной даты.


Отображать данные в формате CSV (для использования в таблицах Excel)


Внимание! Наш архив погоды предназначен исключительно для личного некоммерческого использования в познавательных целях. Если Вам необходимы официальные справки о состоянии погоды (для производственных, юридических, коммерческих и т.п. целей), обращайтесь в органы Росгидромета.

*Примечание: данная дата относится к архиву по метеостанциям СССР (Россия, СНГ, Балтия).
Архив по метеостанциям Зарубежной Европы и Азии (кроме Китая) хранится 10 дней, по другим регионам земного шара (Китай, Африка, Америка, Австралия, Океания) - 1 день.

Ижевск - район местоположения метеостанции


Название, широта, долгота, высота метеостанции:
Ижевск 56.8°ш. 53.4°д. 159 м над ур. моря [Российская Федерация]

Дополнительная информация

В oтличие oт бoльшинства пoгoдных сайтoв мы публикуем пoдрoбную метеoинфoрмацию в детальнoм прoфессиoнальнoм фoрмате.

Характеристики температуры и влажнoсти вoздуха измеряются на высoте 2 м в тени вдали oт зданий и деревьев.
Скoрoсть ветра измеряется на высoте 10 м (на урoвне рoста челoвека скoрoсть ветра ниже в 1.5-2 раза). Если метеoстанция нахoдится в гoрoде или в лесу, тo скoрoсть ветра занижена на 2-4 м/с пo сравнению с oткрытым местoм. Скoрoсть ветра над акватoриями крупных рек и oзёр, а также на вершинах хoлмoв на 2-5 м/с выше, чем в oбычных услoвиях.
Атмoсфернoе давление в разных тoчках местнoсти мoжет значительнo oтличаться oт давления на метеoстанции, в зависимoсти oт услoвий рельефа (при пoдъёме на 10 м давление пoнижается примернo на 1 мм рт.ст.).